Location: Street
(51.1247°N, 2.7429°W)
Time: 08:24:15
(UTC+01:00)

PCSat - Pass Details

Date: 05 April 2023
Orbit: 783 x 794 km, 67.1° (Epoch: 29 May)

Event Time Altitude Azimuth Distance (km) Brightness Sun altitude
Rises 21:58:58 0° 322° (NW) 3,302 14.3 -19.1°
Reaches altitude 10° 22:01:43 10° 333° (NNW) 2,371 13.0 -19.5°
Maximum altitude 22:06:25 29° 33° (NNE) 1,439 10.9 -20.0°
Enters shadow 22:08:49 21° 73° (ENE) 1,733 11.0 -20.3°
